#timestamp,LO_Frequency,Hit,StdDev 
1669399215.7,286047000.1,N
1669399235.5,286047000.1,N
1669399255.4,286047000.1,N
1669399275.2,286047000.1,N
1669399295.0,286047000.3,N
1669399295.9,286047000.3,N
1669399315.8,286047002.8,Y
1669399335.6,286047002.7,P
1669399355.5,286047002.5,N
1669399375.3,286047002.8,N
1669399395.1,286047002.5,N
1669399415.9,286046999.9,N
1669399435.7,286047002.3,N
1669399455.5,286047002.6,N
1669399475.4,286046999.8,N
1669399495.2,286047000.9,N
1669399515.1,286047000.5,N
1669399516.0,286047000.5,N
1669399535.8,286046999.8,N
1669399555.6,286047002.2,N
1669399575.5,286047002.3,N
1669399595.3,286047001.4,N
1669399615.1,286046999.7,N
1669399635.9,286047002.4,N
1669399655.7,286047000.9,N
1669399675.6,286047002.2,N
1669399695.4,286047001.5,N
1669399715.2,286047004.4,Y
1669399735.1,286047002.5,P
1669399736.0,286047002.5,P
1669399755.8,286047002.1,P
1669399775.6,286047000.7,N
1669399795.5,286047000.7,N
1669399815.3,286047001.1,N
1669399835.2,286047000.8,N
1669399855.9,286047002.4,Y
1669399875.7,286046998.5,P
1669399895.6,286046996.8,N
1669399915.4,286046999.6,N
1669399935.3,286046997.2,N
1669399955.1,286047004.2,N
1669399956.0,286047004.2,N
1669399975.8,286047016.3,Y
1669399995.7,286047017.4,P
1669400015.5,286047013.5,N
1669400035.3,286047010.4,N
1669400055.2,286047006.7,N
1669400075.0,286047001.4,N
1669400075.9,286047001.4,N
1669400095.8,286047001.4,N
1669400115.6,286047001.9,N
1669400135.4,286047000.1,N
1669400155.3,286046998.1,N
1669400175.1,286046998.2,N
1669400195.8,286046998.3,N
1669400215.7,286046998.7,N
1669400235.5,286046999.4,N
1669400255.4,286046997.0,N
1669400275.2,286046997.7,N
1669400295.0,286046996.7,N
1669400295.9,286046996.7,N
1669400315.8,286046997.9,N
1669400335.6,286046997.7,N
1669400355.4,286046995.4,N
1669400375.3,286046994.9,N
1669400395.1,286046995.9,N
1669400415.9,286046993.6,N
1669400435.7,286046993.3,N
1669400455.5,286046996.4,N
1669400475.4,286046994.8,N
1669400495.2,286046994.5,N
1669400515.1,286046996.4,N
1669400516.0,286046996.4,N
1669400535.8,286046996.1,N
1669400555.6,286047011.9,N
1669400575.5,286046993.8,N
1669400595.3,286046994.9,N
1669400615.1,286046993.7,N
1669400635.9,286046993.4,N
1669400655.7,286046994.5,N
1669400675.6,286046994.6,N
1669400695.4,286046992.4,N
1669400715.2,286046992.2,N
1669400735.1,286046991.7,N
1669400736.0,286046991.7,N
1669400755.8,286046991.7,N
1669400775.7,286046991.7,N
1669400795.5,286046993.9,N
1669400815.3,286046993.8,N
1669400835.2,286046993.5,N
1669400855.0,286046993.3,N
1669400855.9,286046993.3,N
1669400875.7,286046995.9,N
1669400895.6,286046996.0,N
1669400915.4,286046996.1,N
1669400935.3,286046995.0,N
1669400955.1,286046997.7,N
1669400956.0,286046997.7,N
1669400975.8,286046998.0,N
1669400995.7,286046996.4,N
1669401015.5,286046993.3,N
1669401035.3,286046996.1,N
1669401055.2,286046995.9,N
1669401075.0,286046996.2,N
1669401075.9,286046996.2,N
1669401095.8,286046994.9,N
1669401115.6,286046996.2,N
1669401135.4,286046995.5,N
1669401155.3,286046993.7,Y
1669401175.1,286046998.3,P
1669401195.9,286047000.9,N
1669401215.7,286047000.3,N
1669401235.5,286047000.1,N
1669401255.4,286046999.7,N
1669401275.2,286047000.9,N
1669401295.0,286047000.6,N
1669401295.9,286047000.6,N
1669401315.8,286046998.1,N
1669401335.6,286046997.1,N
1669401355.5,286046996.6,N
1669401375.3,286046995.5,N
1669401395.1,286046997.4,N
1669401415.9,286046999.9,N
1669401435.7,286047000.9,N
1669401455.5,286046998.9,N
1669401475.4,286047001.1,N
1669401495.2,286047001.2,N
1669401515.1,286047000.3,N
1669401516.0,286047000.3,N
1669401535.8,286047000.4,N
1669401555.6,286047002.4,N
1669401575.5,286047003.4,N
1669401595.3,286047003.5,N
1669401615.2,286047004.3,N
1669401635.9,286047004.1,N
1669401655.7,286047001.3,N
1669401675.6,286047001.3,N
1669401695.4,286047002.0,N
1669401715.2,286047002.5,N
1669401735.1,286047002.4,N
1669401736.0,286047002.4,N
1669401755.8,286047002.3,N
1669401775.7,286047004.3,N
1669401795.5,286047001.8,N
1669401815.4,286047002.2,N
1669401835.2,286047001.9,N
1669401855.0,286047002.4,N
1669401855.9,286047002.4,N
1669401875.8,286047001.3,N
1669401895.6,286047004.3,N
1669401915.4,286047002.1,N
1669401935.3,286047004.3,N
1669401955.1,286047004.0,N
1669401975.9,286047004.0,N
1669401995.7,286047004.0,N
1669402015.5,286047001.8,N
1669402035.4,286047001.3,N
1669402055.2,286047003.5,N
1669402075.0,286047001.3,N
1669402076.0,286047001.3,N
1669402095.8,286047004.0,Y
1669402115.6,286046998.2,P
1669402135.5,286047001.2,N
1669402155.3,286047000.8,N
1669402175.1,286046998.5,N
1669402195.9,286046998.8,N
1669402215.7,286046998.2,N
1669402235.6,286046999.0,N
1669402255.4,286047000.4,N
1669402275.2,286046998.5,N
1669402295.1,286046998.3,N
1669402296.0,286046998.3,N
1669402315.8,286047000.8,N
1669402335.6,286047000.9,N
1669402355.5,286046999.8,N
1669402375.3,286047002.6,N
1669402395.2,286047000.0,N
1669402415.9,286047001.6,N
1669402435.7,286047002.2,N
1669402455.6,286047011.9,Y
1669402475.4,286046999.9,P
1669402495.2,286046999.9,N
1669402515.1,286047000.6,P
1669402516.0,286047000.6,N
1669402535.8,286047000.9,N
1669402555.7,286047001.2,N
1669402575.5,286046998.4,Y
1669402595.3,286046999.2,P
1669402615.2,286046997.0,P
1669402635.0,286046996.9,N
1669402635.9,286046996.9,N
1669402655.8,286046998.9,N
1669402675.6,286046998.2,N
1669402695.4,286047001.0,N
1669402715.3,286046998.3,N
1669402735.1,286046999.2,N
1669402755.8,286046998.7,N
1669402775.7,286046999.2,N
1669402795.5,286046999.0,N
